• en France
  • Liste des pays
  • À 7 jours
  • Température de l'eau
  • Carte satellitaire
  • Carte météo
  • Widgets météo
  • user-avatar
    Se connecter

    Météo par heure à Vlesno

    Ce jour, 20 Septembre, Jeudi

    Heure Température Précipitation Vent Pression Humidité
    00:00 +16°C° 0 mm 2 m/s 752 mmHg 95%
    01:00 +15°C° 0 mm 2 m/s 752 mmHg 96%
    02:00 +14°C° 0 mm 2 m/s 753 mmHg 97%
    03:00 +14°C° 0 mm 2 m/s 753 mmHg 97%
    04:00 +14°C° 0 mm 2 m/s 753 mmHg 98%
    05:00 +13°C° 0 mm 2 m/s 753 mmHg 98%
    06:00 +14°C° 0 mm 2 m/s 753 mmHg 94%
    07:00 +14°C° 0 mm 3 m/s 753 mmHg 91%
    08:00 +14°C° 0 mm 3 m/s 754 mmHg 88%
    09:00 +17°C° 0 mm 3 m/s 754 mmHg 80%
    10:00 +19°C° 0 mm 3 m/s 754 mmHg 72%
    11:00 +21°C° 0 mm 3 m/s 754 mmHg 64%
    12:00 +22°C° 0 mm 3 m/s 754 mmHg 61%
    13:00 +24°C° 0 mm 3 m/s 754 mmHg 57%
    14:00 +25°C° 0 mm 4 m/s 754 mmHg 53%
    15:00 +24°C° 0 mm 3 m/s 753 mmHg 58%
    16:00 +22°C° 0 mm 3 m/s 753 mmHg 63%
    17:00 +23°C° 0 mm 2 m/s 753 mmHg 67%
    18:00 +20°C° 0 mm 2 m/s 753 mmHg 72%
    19:00 +19°C° 0 mm 2 m/s 753 mmHg 77%
    20:00 +18°C° 0 mm 2 m/s 753 mmHg 82%
    21:00 +17°C° 0 mm 2 m/s 753 mmHg 85%
    22:00 +17°C° 0 mm 2 m/s 753 mmHg 89%
    23:00 +17°C° 0 mm 2 m/s 754 mmHg 92%

    Demain, 21 Septembre, Vendredi

    Heure Température Précipitation Vent Pression Humidité
    00:00 +17°C° 0 mm 2 m/s 754 mmHg 93%
    01:00 +16°C° 0 mm 2 m/s 754 mmHg 95%
    02:00 +16°C° 0 mm 2 m/s 754 mmHg 96%
    03:00 +16°C° 0 mm 2 m/s 754 mmHg 96%
    04:00 +16°C° 0 mm 2 m/s 754 mmHg 96%
    05:00 +16°C° 0 mm 2 m/s 754 mmHg 96%
    06:00 +17°C° 0 mm 2 m/s 754 mmHg 92%
    07:00 +18°C° 0 mm 3 m/s 754 mmHg 88%
    08:00 +19°C° 0 mm 3 m/s 754 mmHg 84%
    09:00 +21°C° 0 mm 3 m/s 754 mmHg 78%
    10:00 +22°C° 0 mm 4 m/s 754 mmHg 72%
    11:00 +25°C° 0 mm 4 m/s 753 mmHg 66%
    12:00 +26°C° 0 mm 4 m/s 753 mmHg 62%
    13:00 +27°C° 0 mm 4 m/s 753 mmHg 59%
    14:00 +27°C° 0 mm 5 m/s 752 mmHg 56%
    15:00 +27°C° 0 mm 4 m/s 752 mmHg 61%
    16:00 +26°C° 0 mm 4 m/s 751 mmHg 65%
    17:00 +25°C° 0 mm 3 m/s 751 mmHg 70%
    18:00 +24°C° 0 mm 3 m/s 751 mmHg 72%
    19:00 +21°C° 0 mm 4 m/s 750 mmHg 74%
    20:00 +20°C° 0 mm 4 m/s 750 mmHg 76%
    21:00 +20°C° 0 mm 4 m/s 750 mmHg 75%
    22:00 +19°C° 0 mm 4 m/s 749 mmHg 74%
    23:00 +19°C° 0 mm 4 m/s 749 mmHg 73%

    Après-demain, 22 Septembre, Samedi

    Heure Température Précipitation Vent Pression Humidité
    00:00 +19°C° 0 mm 5 m/s 748 mmHg 73%
    01:00 +19°C° 0 mm 5 m/s 748 mmHg 73%
    02:00 +19°C° 0 mm 5 m/s 747 mmHg 73%
    03:00 +19°C° 0 mm 5 m/s 747 mmHg 71%
    04:00 +19°C° 0 mm 5 m/s 746 mmHg 69%
    05:00 +17°C° 0 mm 5 m/s 746 mmHg 67%
    06:00 +17°C° 0.1 mm 5 m/s 746 mmHg 70%
    07:00 +17°C° 0.1 mm 6 m/s 746 mmHg 72%
    08:00 +16°C° 0.1 mm 6 m/s 746 mmHg 74%
    09:00 +15°C° 0.9 mm 5 m/s 747 mmHg 79%
    10:00 +13°C° 0.9 mm 4 m/s 748 mmHg 83%
    11:00 +12°C° 0.9 mm 3 m/s 748 mmHg 88%
    12:00 +12°C° 0.1 mm 3 m/s 749 mmHg 85%
    13:00 +13°C° 0.1 mm 3 m/s 749 mmHg 82%
    14:00 +13°C° 0.1 mm 3 m/s 749 mmHg 79%
    15:00 +13°C° 0 mm 3 m/s 749 mmHg 78%
    16:00 +13°C° 0 mm 3 m/s 749 mmHg 77%
    17:00 +13°C° 0 mm 4 m/s 749 mmHg 76%
    18:00 +12°C° 0 mm 3 m/s 749 mmHg 76%
    19:00 +12°C° 0 mm 3 m/s 749 mmHg 76%
    20:00 +11°C° 0 mm 3 m/s 749 mmHg 76%
    21:00 +11°C° 0 mm 3 m/s 749 mmHg 78%
    22:00 +10°C° 0 mm 3 m/s 749 mmHg 80%
    23:00 +10°C° 0 mm 3 m/s 749 mmHg 82%

    23 Septembre, Dimanche

    Heure Température Précipitation Vent Pression Humidité
    00:00 +9°C° 0 mm 3 m/s 749 mmHg 84%
    01:00 +8°C° 0 mm 3 m/s 749 mmHg 86%
    02:00 +8°C° 0 mm 3 m/s 749 mmHg 88%
    03:00 +8°C° 0 mm 3 m/s 749 mmHg 87%
    04:00 +7°C° 0 mm 4 m/s 748 mmHg 86%
    05:00 +7°C° 0 mm 4 m/s 748 mmHg 86%
    06:00 +8°C° 0 mm 4 m/s 748 mmHg 83%
    07:00 +8°C° 0 mm 5 m/s 747 mmHg 80%
    08:00 +9°C° 0 mm 5 m/s 747 mmHg 78%
    09:00 +10°C° 0 mm 5 m/s 747 mmHg 74%
    10:00 +12°C° 0 mm 5 m/s 747 mmHg 71%
    11:00 +13°C° 0 mm 6 m/s 747 mmHg 67%
    12:00 +13°C° 0.3 mm 6 m/s 747 mmHg 66%
    13:00 +13°C° 0.3 mm 6 m/s 747 mmHg 65%
    14:00 +13°C° 0.3 mm 6 m/s 747 mmHg 64%
    15:00 +13°C° 0.2 mm 5 m/s 747 mmHg 67%
    16:00 +12°C° 0.2 mm 4 m/s 747 mmHg 70%
    17:00 +11°C° 0.2 mm 3 m/s 747 mmHg 74%
    18:00 +10°C° 0.2 mm 3 m/s 747 mmHg 78%
    19:00 +9°C° 0.2 mm 3 m/s 747 mmHg 83%
    20:00 +8°C° 0.2 mm 3 m/s 747 mmHg 87%
    21:00 +8°C° 0 mm 3 m/s 746 mmHg 88%
    22:00 +8°C° 0 mm 3 m/s 746 mmHg 90%
    23:00 +7°C° 0 mm 3 m/s 746 mmHg 91%

    24 Septembre, Lundi

    Heure Température Précipitation Vent Pression Humidité
    00:00 +7°C° 0 mm 2 m/s 746 mmHg 92%
    01:00 +7°C° 0 mm 2 m/s 745 mmHg 93%
    02:00 +7°C° 0 mm 2 m/s 745 mmHg 95%
    03:00 +7°C° 0.1 mm 2 m/s 744 mmHg 95%
    04:00 +7°C° 0.1 mm 2 m/s 744 mmHg 96%
    05:00 +7°C° 0.1 mm 2 m/s 743 mmHg 96%
    06:00 +7°C° 0.5 mm 2 m/s 742 mmHg 95%
    07:00 +7°C° 0.5 mm 3 m/s 741 mmHg 94%
    08:00 +8°C° 0.5 mm 3 m/s 740 mmHg 93%
    09:00 +7°C° 1.7 mm 4 m/s 739 mmHg 93%
    10:00 +7°C° 1.7 mm 5 m/s 738 mmHg 93%
    11:00 +7°C° 1.7 mm 6 m/s 736 mmHg 93%
    12:00 +5°C° 3.8 mm 6 m/s 736 mmHg 93%
    13:00 +5°C° 3.8 mm 7 m/s 735 mmHg 93%
    14:00 +5°C° 3.8 mm 7 m/s 734 mmHg 94%
    15:00 +5°C° 2.8 mm 7 m/s 734 mmHg 93%
    16:00 +5°C° 2.8 mm 8 m/s 734 mmHg 92%
    17:00 +5°C° 2.8 mm 8 m/s 734 mmHg 91%
    18:00 +5°C° 1.4 mm 8 m/s 735 mmHg 90%
    19:00 +5°C° 1.4 mm 8 m/s 736 mmHg 90%
    20:00 +5°C° 1.4 mm 8 m/s 736 mmHg 89%
    21:00 +5°C° 0.5 mm 8 m/s 737 mmHg 88%
    22:00 +5°C° 0.5 mm 8 m/s 738 mmHg 87%
    23:00 +4°C° 0.5 mm 7 m/s 739 mmHg 85%

    25 Septembre, Mardi

    Heure Température Précipitation Vent Pression Humidité
    00:00 +4°C° 0.1 mm 7 m/s 740 mmHg 85%
    01:00 +4°C° 0.1 mm 7 m/s 741 mmHg 84%
    02:00 +4°C° 0.1 mm 6 m/s 742 mmHg 83%
    03:00 +4°C° 0 mm 6 m/s 743 mmHg 82%
    04:00 +4°C° 0 mm 6 m/s 744 mmHg 80%
    05:00 +3°C° 0 mm 6 m/s 744 mmHg 79%
    06:00 +3°C° 0 mm 6 m/s 745 mmHg 76%
    07:00 +4°C° 0 mm 7 m/s 746 mmHg 73%
    08:00 +4°C° 0 mm 7 m/s 746 mmHg 70%
    09:00 +5°C° 0 mm 7 m/s 747 mmHg 64%
    10:00 +6°C° 0 mm 7 m/s 748 mmHg 59%
    11:00 +8°C° 0 mm 7 m/s 748 mmHg 53%
    12:00 +8°C° 0 mm 7 m/s 749 mmHg 52%
    13:00 +9°C° 0 mm 7 m/s 750 mmHg 51%
    14:00 +10°C° 0 mm 7 m/s 750 mmHg 50%
    15:00 +9°C° 0 mm 6 m/s 751 mmHg 54%
    16:00 +8°C° 0 mm 4 m/s 751 mmHg 59%
    17:00 +9°C° 0 mm 3 m/s 752 mmHg 63%
    18:00 +8°C° 0 mm 3 m/s 752 mmHg 66%
    19:00 +7°C° 0 mm 3 m/s 753 mmHg 69%
    20:00 +5°C° 0 mm 3 m/s 753 mmHg 72%
    21:00 +5°C° 0 mm 3 m/s 754 mmHg 73%
    22:00 +4°C° 0 mm 3 m/s 754 mmHg 75%
    23:00 +4°C° 0 mm 3 m/s 755 mmHg 76%
    Voir plus